Таскескен

Казахстан     47°13′23″N   80°47′22″E
В апреле 2022 года жителям России запретили посещать сайт meteo.paraplan.net по решению Генеральной прокуратуры. Аудитория сайта уменьшилась в 10 раз. Владельцы сайта не видят смысла в поддержке погодного сервера в таких условиях. Сайт будет закрыт в октябре.
темп.,
°C
ветер,
м/с
пор.,
м/с
влажн.,
%
обл.,
%
осадки,
мм/ч
давл.,
гПа
погр.,
м
4 октября, вт
вт400:00+4св2229100 0.0 102310
03:00+4ссв222929 0.0 102211
06:00+3всв2132100 0.0 102310
09:00+10юв1119100 0.0 1024169
12:00+13зюз2116100 0.0 1023808
15:00+15з231386 0.0 10231149
18:00+11юз111835 0.0 102418
21:00+8всв22225 0.0 102610
5 октября, ср
ср500:00+7св33225 0.0 102731
03:00+6св22213 0.0 102714
06:00+5св33210 0.0 102817
09:00+11св11140 0.0 1029191
12:00+16зсз11130 0.0 10281009
15:00+18с43100 0.0 10271642
18:00+13ссв913145 0.0 1028344
21:00+9св43220 0.0 102937
6 октября, чт
чт600:00+8св46240 0.0 103058
03:00+7всв22250 0.0 102912
06:00+6св22240 0.0 102911
09:00+13св35270 0.0 1029272
12:00+18ююв231617 0.0 10271050
15:00+20ссв66269 0.0 10241514
18:00+15св101335100 0.0 1025375
21:00+13св8133993 0.0 1026273
7 октября, пт
пт700:00+12св5849100 0.0 1026137
03:00+10св4556100 0.0 102577
06:00+10св47566 0.0 1025113
09:00+14в34380 0.0 1025347
12:00+18ююз12250 0.0 10241088
15:00+21ссв34180 0.0 10211570
18:00+16св711253 0.0 1022294
21:00+13в33345 0.0 102220
8 октября, сб
сб800:00+12всв323751 0.0 102211
03:00+11в333715 0.0 102116
06:00+11в334140 0.0 102116
09:00+16юв611285 0.0 1021651
12:00+20юв911190 0.0 10191001
15:00+22юв99160 0.0 10181252
18:00+17юв612240 0.0 1018287
21:00+14вюв511310 0.0 1019187